linux/drivers/watchdog/
<<
>>
Prefs
Kconfig 63141 2017-11-21 08:49:25
Makefile 8051 2017-11-21 08:49:25
acquirewdt.c 8692 2017-11-21 08:49:25
advantechwdt.c 7983 2017-11-21 08:49:25
alim1535_wdt.c 10135 2017-11-21 08:49:25
alim7101_wdt.c 11167 2017-11-21 08:49:25
ar7_wdt.c 7879 2017-11-21 08:49:25
asm9260_wdt.c 9069 2017-11-21 08:49:25
aspeed_wdt.c 8738 2017-11-21 08:49:25
at32ap700x_wdt.c 9841 2017-11-21 08:49:25
at91rm9200_wdt.c 8064 2017-11-21 08:49:25
at91sam9_wdt.c 10960 2017-11-21 08:49:25
at91sam9_wdt.h 1530 2017-11-21 08:49:25
ath79_wdt.c 7593 2017-11-21 08:49:25
atlas7_wdt.c 5981 2017-11-21 08:49:25
bcm2835_wdt.c 7129 2017-11-21 08:49:25
bcm47xx_wdt.c 6133 2017-11-21 08:49:25
bcm63xx_wdt.c 7136 2017-11-21 08:49:25
bcm7038_wdt.c 5906 2017-11-21 08:49:25
bcm_kona_wdt.c 9628 2017-11-21 08:49:25
bfin_wdt.c 10356 2017-11-21 08:49:25
booke_wdt.c 5993 2017-11-21 08:49:25
cadence_wdt.c 13204 2017-11-21 08:49:25
coh901327_wdt.c 12192 2017-11-21 08:49:25
cpu5wdt.c 6802 2017-11-21 08:49:25
cpwd.c 16172 2017-11-21 08:49:25
da9052_wdt.c 5051 2017-11-21 08:49:25
da9055_wdt.c 4360 2017-11-21 08:49:25
da9062_wdt.c 6399 2017-11-21 08:49:25
da9063_wdt.c 4985 2017-11-21 08:49:25
davinci_wdt.c 6733 2017-11-21 08:49:25
diag288_wdt.c 7659 2017-11-21 08:49:25
digicolor_wdt.c 4265 2017-11-21 08:49:25
dw_wdt.c 8185 2017-11-21 08:49:25
ebc-c384_wdt.c 4082 2017-11-21 08:49:25
ep93xx_wdt.c 3773 2017-11-21 08:49:25
eurotechwdt.c 10947 2017-11-21 08:49:25
f71808e_wdt.c 22334 2017-11-21 08:49:25
gef_wdt.c 7672 2017-11-21 08:49:25
gemini_wdt.c 5339 2017-11-21 08:49:25
geodewdt.c 6603 2017-11-21 08:49:25
gpio_wdt.c 4906 2017-11-21 08:49:25
hpwdt.c 22343 2017-11-21 08:49:25
i6300esb.c 12672 2017-11-21 08:49:25
iTCO_vendor.h 719 2017-11-21 08:49:25
iTCO_vendor_support.c 11089 2017-11-21 08:49:25
iTCO_wdt.c 18045 2017-11-21 08:49:25
ib700wdt.c 8519 2017-11-21 08:49:25
ibmasr.c 9628 2017-11-21 08:49:25
ie6xx_wdt.c 8769 2017-11-21 08:49:25
imgpdc_wdt.c 9608 2017-11-21 08:49:25
imx2_wdt.c 12196 2017-11-21 08:49:25
indydog.c 4703 2017-11-21 08:49:25
intel-mid_wdt.c 4670 2017-11-21 08:49:25
intel_scu_watchdog.c 15396 2017-11-21 08:49:25
intel_scu_watchdog.h 2053 2017-11-21 08:49:25
iop_wdt.c 6030 2017-11-21 08:49:25
it8712f_wdt.c 10199 2017-11-21 08:49:25
it87_wdt.c 7893 2017-11-21 08:49:25
ixp4xx_wdt.c 4680 2017-11-21 08:49:25
jz4740_wdt.c 6365 2017-11-21 08:49:25
kempld_wdt.c 14969 2017-11-21 08:49:25
ks8695_wdt.c 7838 2017-11-21 08:49:25
lantiq_wdt.c 7513 2017-11-21 08:49:25
loongson1_wdt.c 4114 2017-11-21 08:49:25
lpc18xx_wdt.c 9313 2017-11-21 08:49:25
m54xx_wdt.c 5130 2017-11-21 08:49:25
machzwd.c 10054 2017-11-21 08:49:25
max63xx_wdt.c 7154 2017-11-21 08:49:25
max77620_wdt.c 5531 2017-11-21 08:49:25
mei_wdt.c 15648 2017-11-21 08:49:25
mena21_wdt.c 5669 2017-11-21 08:49:25
menf21bmc_wdt.c 5492 2017-11-21 08:49:25
meson_gxbb_wdt.c 8132 2017-11-21 08:49:25
meson_wdt.c 6325 2017-11-21 08:49:25
mixcomwd.c 7428 2017-11-21 08:49:25
moxart_wdt.c 4566 2017-11-21 08:49:25
mpc8xxx_wdt.c 6994 2017-11-21 08:49:25
mt7621_wdt.c 4312 2017-11-21 08:49:25
mtk_wdt.c 6862 2017-11-21 08:49:25
mtx-1_wdt.c 6368 2017-11-21 08:49:25
mv64x60_wdt.c 7825 2017-11-21 08:49:25
ni903x_wdt.c 6899 2017-11-21 08:49:25
nic7018_wdt.c 6339 2017-11-21 08:49:25
nuc900_wdt.c 7310 2017-11-21 08:49:25
nv_tco.c 12493 2017-11-21 08:49:25
nv_tco.h 2062 2017-11-21 08:49:25
octeon-wdt-main.c 16868 2017-11-21 08:49:25
octeon-wdt-nmi.S 2042 2021-08-29 15:04:50 -0700
of_xilinx_wdt.c 8234 2017-11-21 08:49:25
omap_wdt.c 9788 2017-11-21 08:49:25
omap_wdt.h 2300 2017-11-21 08:49:25
orion_wdt.c 17000 2017-11-21 08:49:25
pc87413_wdt.c 14375 2017-11-21 08:49:25
pcwd.c 26527 2017-11-21 08:49:25
pcwd_pci.c 20378 2017-11-21 08:49:25
pcwd_usb.c 21656 2017-11-21 08:49:25
pic32-dmt.c 5743 2017-11-21 08:49:25
pic32-wdt.c 6240 2017-11-21 08:49:25
pika_wdt.c 6894 2017-11-21 08:49:25
pnx4008_wdt.c 7267 2017-11-21 08:49:25
pnx833x_wdt.c 7250 2017-11-21 08:49:25
pretimeout_noop.c 1270 2017-11-21 08:49:25
pretimeout_panic.c 1252 2017-11-21 08:49:25
qcom-wdt.c 6550 2017-11-21 08:49:25
rc32434_wdt.c 8324 2017-11-21 08:49:25
rdc321x_wdt.c 7328 2017-11-21 08:49:25
renesas_wdt.c 5891 2017-11-21 08:49:25
retu_wdt.c 4630 2017-11-21 08:49:25
riowd.c 5716 2017-11-21 08:49:25
rn5t618_wdt.c 5299 2017-11-21 08:49:25
rt2880_wdt.c 5061 2017-11-21 08:49:25
rza_wdt.c 4909 2017-11-21 08:49:25
s3c2410_wdt.c 19667 2017-11-21 08:49:25
sa1100_wdt.c 5234 2017-11-21 08:49:25
sama5d4_wdt.c 7981 2017-11-21 08:49:25
sb_wdog.c 8737 2017-11-21 08:49:25
sbc60xxwdt.c 10352 2017-11-21 08:49:25
sbc7240_wdt.c 7049 2017-11-21 08:49:25
sbc8360.c 10039 2017-11-21 08:49:25
sbc_epx_c3.c 5119 2017-11-21 08:49:25
sbc_fitpc2_wdt.c 5377 2017-11-21 08:49:25
sbsa_gwdt.c 11258 2017-11-21 08:49:25
sc1200wdt.c 11405 2017-11-21 08:49:25
sc520_wdt.c 11080 2017-11-21 08:49:25
sch311x_wdt.c 13801 2017-11-21 08:49:25
scx200_wdt.c 6599 2017-11-21 08:49:25
shwdt.c 9322 2017-11-21 08:49:25
sirfsoc_wdt.c 5825 2017-11-21 08:49:25
smsc37b787_wdt.c 15474 2017-11-21 08:49:25
softdog.c 4654 2017-11-21 08:49:25
sp5100_tco.c 15328 2017-11-21 08:49:25
sp5100_tco.h 1771 2017-11-21 08:49:25
sp805_wdt.c 7318 2017-11-21 08:49:25
st_lpc_wdt.c 7474 2017-11-21 08:49:25
stm32_iwdg.c 6397 2017-11-21 08:49:25
stmp3xxx_rtc_wdt.c 4121 2017-11-21 08:49:25
sun4v_wdt.c 4600 2017-11-21 08:49:25
sunxi_wdt.c 8000 2017-11-21 08:49:25
tangox_wdt.c 5226 2017-11-21 08:49:25
tegra_wdt.c 7872 2017-11-21 08:49:25
ts4800_wdt.c 5352 2017-11-21 08:49:25
ts72xx_wdt.c 4415 2017-11-21 08:49:25
twl4030_wdt.c 3873 2017-11-21 08:49:25
txx9wdt.c 4683 2017-11-21 08:49:25
uniphier_wdt.c 6888 2017-11-21 08:49:25
ux500_wdt.c 4104 2017-11-21 08:49:25
via_wdt.c 7638 2017-11-21 08:49:25
w83627hf_wdt.c 10868 2017-11-21 08:49:25
w83877f_wdt.c 10171 2017-11-21 08:49:25
w83977f_wdt.c 12093 2017-11-21 08:49:25
wafer5823wdt.c 7256 2017-11-21 08:49:25
watchdog_core.c 11342 2017-11-21 08:49:25
watchdog_core.h 1330 2017-11-21 08:49:25
watchdog_dev.c 28514 2017-11-21 08:49:25
watchdog_pretimeout.c 4804 2017-11-21 08:49:25
watchdog_pretimeout.h 1684 2021-08-29 15:04:50 -0700
wd501p.h 1598 2017-11-21 08:49:25
wdat_wdt.c 13007 2017-11-21 08:49:25
wdrtas.c 15626 2017-11-21 08:49:25
wdt.c 15849 2017-11-21 08:49:25
wdt285.c 4856 2017-11-21 08:49:25
wdt977.c 12079 2017-11-21 08:49:25
wdt_pci.c 17668 2017-11-21 08:49:25
wm831x_wdt.c 7255 2017-11-21 08:49:25
wm8350_wdt.c 4240 2017-11-21 08:49:25
xen_wdt.c 7630 2017-11-21 08:49:25
ziirave_wdt.c 19780 2017-11-21 08:49:25
zx2967_wdt.c 7184 2017-11-21 08:49:25